Location: Rounton
(54.4000°N, 1.3500°W)
Time: 15:01:30
(UTC+00:00)

Altair - Pass Details

Date: 30 November 2021
Orbit: 1501 x 1683 km, 47.2° (Epoch: 20 January)

Event Time Altitude Azimuth Distance (km) Brightness Sun altitude
Rises 14:57:35 0° 185° (S) 4,757 11.0 4.3°
Reaches altitude 10° 15:02:08 10° 166° (SSE) 3,742 10.1 3.9°
Maximum altitude 15:07:30 17° 131° (SE) 3,197 9.2 3.3°
Drops below altitude 10° 15:12:46 10° 96° (E) 3,684 9.1 2.8°
Sets 15:17:10 0° 77° (ENE) 4,651 9.5 2.3°
